Delaware, OH

1:29 AM EDT on September 27, 2016 (GMT -0400)
Delaware Municipal

Weather History for KDLZ - February, 2013

Change the Weather History Date:

Wednesday, February 27, 2013

  Actual Average Record
Temperature  
Mean Temperature 36 °F -  
Max Temperature 41 °F 38 °F 63 °F (1976)
Min Temperature 32 °F 18 °F -8 °F (1963)
Degree Days  
Heating Degree Days 28    
Moisture  
Dew Point 33 °F    
Average Humidity 90    
Maximum Humidity 100    
Minimum Humidity 81    
Precipitation  
Precipitation 0.07 in - - ()
Sea Level Pressure  
Sea Level Pressure 29.60 in    
Wind  
Wind Speed 11 mph (SW)    
Max Wind Speed 20 mph    
Max Gust Speed 25 mph    
Visibility 8 miles    
Events Rain , Snow    
Averages and records for this station are not official NWS values.
T = Trace of Precipitation, MM = Missing Value Source: NWS Daily Summary

Daily Weather History Graph

Daily Weather History Graph

Search for Another Location

Airport or City:

Trip Planner

Search our weather history database for the weather conditions in past years. The results will help you decide how hot, cold, wet, or windy it might be!

Date:

Astronomy

Feb. 27, 2013 Rise Set
Actual Time 7:08 AM EST 6:22 PM EST
Civil Twilight 6:41 AM EST 6:49 PM EST
Nautical Twilight 6:09 AM EST 7:21 PM EST
Astronomical Twilight 5:38 AM EST 7:52 PM EST
Moon 8:42 PM EST 7:43 AM EST
Length of Visible Light 12h 08m
Length of Day
11h 13m
Waning Gibbous, 96% of the Moon is Illuminated
Feb 27
Waning Gibbous
Mar 4
Last Quarter
Mar 11
New
Mar 19
First Quarter
Mar 27
Full

Hourly Weather History & Observations

Time (EST) Temp. Windchill Dew Point Humidity Pressure Visibility Wind Dir Wind Speed Gust Speed Precip Events Conditions
12:14 AM 41.0 °F 34.7 °F 37.4 °F 87% 29.47 in 4.0 mi SW 10.4 mph - N/A   Overcast
12:33 AM 41.0 °F 34.3 °F 37.4 °F 87% 29.48 in 10.0 mi SW 11.5 mph - N/A   Overcast
12:53 AM 41.0 °F 34.7 °F 37.4 °F 87% 29.47 in 10.0 mi SW 10.4 mph - N/A   Overcast
1:14 AM 41.0 °F 35.2 °F 37.4 °F 87% 29.48 in 10.0 mi SW 9.2 mph - N/A   Overcast
1:33 AM 41.0 °F 36.4 °F 37.4 °F 87% 29.48 in 10.0 mi SSW 6.9 mph - N/A   Overcast
1:53 AM 41.0 °F 35.8 °F 37.4 °F 87% 29.50 in 10.0 mi SSW 8.1 mph - N/A   Overcast
2:14 AM 41.0 °F 34.3 °F 37.4 °F 87% 29.50 in 10.0 mi SW 11.5 mph - N/A Rain Rain
2:33 AM 39.2 °F 32.5 °F 37.4 °F 93% 29.51 in 10.0 mi SW 10.4 mph - N/A Rain Light Rain
2:53 AM 39.2 °F 33.0 °F 35.6 °F 87% 29.51 in 7.0 mi SW 9.2 mph 19.6 mph 0.01 in Rain Light Rain
3:14 AM 37.4 °F 30.8 °F 35.6 °F 93% 29.51 in 10.0 mi SW 9.2 mph - 0.01 in Rain Rain
3:33 AM 37.4 °F 32.1 °F 35.6 °F 93% 29.51 in 7.0 mi SW 6.9 mph - 0.03 in Rain Light Rain
3:53 AM 37.4 °F 32.8 °F 35.6 °F 93% 29.51 in 7.0 mi SSW 5.8 mph - 0.04 in Rain Rain
4:13 AM 37.4 °F 30.8 °F 35.6 °F 93% 29.51 in 10.0 mi SW 9.2 mph - N/A Rain Light Rain
4:33 AM 37.4 °F 29.3 °F 35.6 °F 93% 29.52 in 7.0 mi SW 12.7 mph - 0.01 in   Drizzle
4:53 AM 37.4 °F 30.8 °F 35.6 °F 93% 29.53 in 10.0 mi SW 9.2 mph - 0.01 in   Drizzle
5:13 AM 37.4 °F 29.8 °F 35.6 °F 93% 29.53 in 10.0 mi SSW 11.5 mph - N/A   Overcast
5:33 AM 37.4 °F 29.8 °F 35.6 °F 93% 29.54 in 10.0 mi SW 11.5 mph - N/A   Overcast
5:54 AM 37.4 °F 30.3 °F 35.6 °F 93% 29.54 in 10.0 mi SW 10.4 mph 16.1 mph N/A   Overcast
6:13 AM 37.4 °F 28.9 °F 35.6 °F 93% 29.54 in 10.0 mi SSW 13.8 mph - N/A   Overcast
6:33 AM 37.4 °F 29.8 °F 33.8 °F 87% 29.55 in 10.0 mi SSW 11.5 mph - N/A   Overcast
6:54 AM 37.4 °F 30.3 °F 33.8 °F 87% 29.56 in 10.0 mi SSW 10.4 mph - N/A   Overcast
7:13 AM 37.4 °F 29.8 °F 33.8 °F 87% 29.56 in 10.0 mi SSW 11.5 mph 17.3 mph N/A   Overcast
7:33 AM 37.4 °F 30.3 °F 33.8 °F 87% 29.58 in 10.0 mi SSW 10.4 mph - N/A   Overcast
7:54 AM 37.4 °F 29.3 °F 33.8 °F 87% 29.59 in 10.0 mi SW 12.7 mph - N/A   Overcast
8:13 AM 37.4 °F 28.2 °F 33.8 °F 87% 29.60 in 10.0 mi SSW 16.1 mph - N/A   Overcast
8:33 AM 37.4 °F 29.3 °F 33.8 °F 87% 29.60 in 10.0 mi SSW 12.7 mph 17.3 mph N/A   Overcast
8:54 AM 37.4 °F 29.8 °F 33.8 °F 87% 29.61 in 10.0 mi SW 11.5 mph 20.7 mph N/A   Overcast
9:13 AM 37.4 °F 29.3 °F 33.8 °F 87% 29.61 in 10.0 mi SW 12.7 mph - N/A   Overcast
9:33 AM 37.4 °F 29.8 °F 33.8 °F 87% 29.61 in 10.0 mi SSW 11.5 mph 17.3 mph N/A   Overcast
10:13 AM 37.4 °F 28.9 °F 33.8 °F 87% 29.61 in 10.0 mi SSW 13.8 mph 17.3 mph N/A   Overcast
10:33 AM 37.4 °F 28.5 °F 33.8 °F 87% 29.61 in 10.0 mi SSW 15.0 mph 20.7 mph N/A   Light Drizzle
10:54 AM 37.4 °F 28.5 °F 33.8 °F 87% 29.62 in 10.0 mi SW 15.0 mph 20.7 mph N/A   Overcast
11:13 AM 37.4 °F 27.2 °F 32.0 °F 81% 29.62 in 10.0 mi SW 19.6 mph 25.3 mph N/A   Overcast
11:33 AM 37.4 °F 28.2 °F 32.0 °F 81% 29.62 in 10.0 mi SW 16.1 mph 24.2 mph N/A   Overcast
12:13 PM 37.4 °F 28.5 °F 33.8 °F 87% 29.62 in 5.0 mi SW 15.0 mph 19.6 mph N/A Rain Light Rain
12:33 PM 37.4 °F 27.2 °F 32.0 °F 81% 29.62 in 5.0 mi SW 19.6 mph 25.3 mph N/A   Drizzle
12:54 PM 35.6 °F 26.6 °F 32.0 °F 87% 29.62 in 10.0 mi SW 13.8 mph 18.4 mph N/A Rain Rain
1:13 PM 35.6 °F 26.6 °F 33.8 °F 93% 29.61 in 10.0 mi SW 13.8 mph 23.0 mph N/A   Light Drizzle
1:33 PM 35.6 °F 26.2 °F 32.0 °F 87% 29.61 in 10.0 mi SW 15.0 mph 25.3 mph N/A   Drizzle
1:53 PM 35.6 °F 25.9 °F 32.0 °F 87% 29.62 in 7.0 mi SW 16.1 mph 23.0 mph N/A Rain Rain
2:13 PM 35.6 °F 27.5 °F 32.0 °F 87% 29.62 in 5.0 mi SW 11.5 mph - N/A Rain Rain
2:34 PM 33.8 °F 26.4 °F 32.0 °F 93% 29.62 in 5.0 mi WSW 9.2 mph - N/A Rain Light Rain
2:53 PM 35.6 °F 27.1 °F 32.0 °F 87% 29.62 in 5.0 mi SW 12.7 mph - N/A Rain Light Rain
3:13 PM 33.8 °F 24.3 °F 32.0 °F 93% 29.62 in 7.0 mi SW 13.8 mph - N/A Rain Light Rain
3:34 PM 33.8 °F 24.8 °F 32.0 °F 93% 29.63 in 5.0 mi SW 12.7 mph - N/A   Overcast
3:53 PM 32.0 °F 23.6 °F 32.0 °F 100% 29.63 in 1.8 mi SW 10.4 mph - 0.01 in Snow Light Snow
4:13 PM 32.0 °F 24.8 °F 32.0 °F 100% 29.63 in 2.5 mi SW 8.1 mph - N/A Snow Light Snow
4:34 PM 33.8 °F 25.3 °F 32.0 °F 93% 29.64 in 10.0 mi SW 11.5 mph - N/A   Overcast
4:53 PM 33.8 °F 25.8 °F 32.0 °F 93% 29.64 in 10.0 mi SW 10.4 mph 17.3 mph N/A   Overcast
5:13 PM 33.8 °F 25.3 °F 32.0 °F 93% 29.64 in 10.0 mi SW 11.5 mph - N/A   Overcast
5:34 PM 33.8 °F 26.4 °F 30.2 °F 87% 29.65 in 10.0 mi SW 9.2 mph - N/A   Overcast
5:53 PM 33.8 °F 25.8 °F 32.0 °F 93% 29.65 in 10.0 mi SW 10.4 mph - N/A Snow Light Snow
6:13 PM 33.8 °F 24.8 °F 30.2 °F 87% 29.66 in 7.0 mi SW 12.7 mph 17.3 mph N/A Snow Light Snow
6:34 PM 32.0 °F 23.0 °F 30.2 °F 93% 29.66 in 7.0 mi SW 11.5 mph 16.1 mph N/A Snow Light Snow
6:53 PM 32.0 °F 23.0 °F 30.2 °F 93% 29.66 in 7.0 mi SW 11.5 mph 17.3 mph N/A Snow Light Snow
7:13 PM 32.0 °F 22.5 °F 30.2 °F 93% 29.67 in 7.0 mi SW 12.7 mph - N/A Snow Light Snow
7:34 PM 32.0 °F 23.0 °F 30.2 °F 93% 29.67 in 5.0 mi SW 11.5 mph 18.4 mph N/A Snow Light Snow
7:53 PM 32.0 °F 23.6 °F 30.2 °F 93% 29.67 in 10.0 mi SW 10.4 mph 16.1 mph N/A Snow Light Snow
8:13 PM 32.0 °F 23.0 °F 30.2 °F 93% 29.66 in 7.0 mi SW 11.5 mph - N/A Snow Light Snow
8:34 PM 32.0 °F 24.2 °F 30.2 °F 93% 29.66 in 5.0 mi SSW 9.2 mph - N/A Snow Light Snow
8:53 PM 32.0 °F 23.6 °F 30.2 °F 93% 29.66 in 5.0 mi SSW 10.4 mph - N/A Snow Light Snow
9:14 PM 32.0 °F 23.6 °F 30.2 °F 93% 29.66 in 5.0 mi SW 10.4 mph - N/A Snow Light Snow
9:33 PM 32.0 °F 23.6 °F 30.2 °F 93% 29.66 in 5.0 mi SW 10.4 mph - N/A Snow Light Snow
9:53 PM 32.0 °F 23.0 °F 30.2 °F 93% 29.65 in 5.0 mi SSW 11.5 mph 16.1 mph N/A Snow Light Snow
10:14 PM 32.0 °F 23.0 °F 30.2 °F 93% 29.65 in 4.0 mi SW 11.5 mph - N/A Snow Light Snow
10:33 PM 32.0 °F 23.6 °F 30.2 °F 93% 29.65 in 4.0 mi SSW 10.4 mph 17.3 mph N/A Snow Light Snow
10:53 PM 32.0 °F 23.6 °F 30.2 °F 93% 29.65 in 4.0 mi SSW 10.4 mph - N/A Snow Light Snow
11:14 PM 32.0 °F 22.5 °F 30.2 °F 93% 29.65 in 4.0 mi SW 12.7 mph 19.6 mph N/A Snow Light Snow
11:33 PM 32.0 °F 23.6 °F 30.2 °F 93% 29.64 in 7.0 mi WSW 10.4 mph - N/A Snow Light Snow
11:53 PM 32.0 °F 24.8 °F 30.2 °F 93% 29.64 in 5.0 mi SW 8.1 mph - N/A Snow Light Snow